Regional Weather Roundup
Issued by NWS

Home | Current Version | Previous Version | Text Only | Print | Product List | Glossary On
Versions: 1 2 3 4 5 6 7 8 9 10 11 12 13 14 15 16 17 18 19 20 21 22 23 24 25 26 27
000
ASUS46 KSEW 281010
RWRWA

WASHINGTON REGIONAL WEATHER ROUNDUP
NATIONAL WEATHER SERVICE SEATTLE WA
300 AM PDT THU JUL 28 2016

NOTE:"FAIR" INDICATES FEW OR NO CLOUDS BELOW 12,000 FEET WITH NO
SIGNIFICANT WEATHER AND/OR OBSTRUCTIONS TO VISIBILITY.

WAZ505-507>509-281100-
SEATTLE, TACOMA, EVERETT, AND VICINITY

CITY           SKY/WX    TMP DP  RH WIND       PRES   REMARKS
EVERETT        CLEAR     62  55  77 CALM      30.12S
BOEING FIELD   CLEAR     66  56  70 NW5       30.09F
RENTON         CLEAR     69  60  73 CALM      30.09S
SEATAC AIRPORT CLEAR     68  60  75 NE6       30.11S
JBLM-MCCHORD   CLEAR     64  61  89 S2        30.10S
PUYALLUP         N/A     59  59 100 CALM      30.11R
BREMERTON      CLEAR     57  55  94 CALM      30.14R
JBLM-FT LEWIS  CLEAR     62  60  93 W5        30.10R
TACOMA NARROWS CLEAR     62  56  80 CALM      30.11R
$$

WAZ001-503-506-510-514-515-281100-
NORTH INTERIOR

CITY           SKY/WX    TMP DP  RH WIND       PRES   REMARKS
BELLINGHAM     CLEAR     61  58  90 S5        30.11R
FRIDAY HARBOR  CLEAR     51  49  92 CALM      30.11S
EASTSOUND      CLEAR     57  55  94 S3        30.09R
PORT ANGELES   CLOUDY    55  54  96 NW3       30.12R FOG
EDIZ HOOK      CLOUDY    54  53  97 W7        30.12R FOG
PORT TOWNSEND  FAIR      54  52  94 CALM      30.12R
NAS WHIDBEY    CLEAR     56  51  84 CALM      30.15S
ARLINGTON      CLEAR     55  48  76 NW3       30.13R
BURLINGTON     CLEAR     55  54  94 CALM      30.11S
$$

WAZ020-022-039-040-504-511-512-281100-
SOUTHWEST INTERIOR

CITY           SKY/WX    TMP DP  RH WIND       PRES   REMARKS
SHELTON        CLOUDY    57  55  93 W6        30.09S
OLYMPIA        CLEAR     57  55  93 CALM      30.10S
CHEHALIS       FAIR      57  57 100 CALM      30.11R
KELSO          CLOUDY    60  57  89 VRB3      30.11R
VANCOUVER      CLEAR     64  57  78 NW6       30.06R
SCAPPOOSE, OR  CLEAR     64  56  75 CALM      30.05R
PORTLAND, OR   CLEAR     65  57  75 N6        30.06S
$$

WAZ021-516-517-281100-
WASHINGTON COAST

CITY           SKY/WX    TMP DP  RH WIND       PRES   REMARKS
FORKS          CLOUDY    57  57 100 W3        30.14S
HOQUIAM        FOG       56  56 100 NW3       30.14R VSB 3/4
ASTORIA, OR    CLOUDY    59  56  89 NW9       30.13R FOG
$$

WAZ019-023-024-040-518-519-281100-
CASCADE MOUNTAINS AND COLUMBIA GORGE

CITY           SKY/WX    TMP DP  RH WIND       PRES   REMARKS
STAMPEDE PASS  CLEAR     56  53  90 SW5       30.22S
TROUTDALE, OR  CLEAR     65  60  84 W3        30.05S
THE DALLES, OR CLEAR     73  59  61 W8        29.98R
$$

WAZ026-027-041>044-520-521-281100-
EAST SLOPES

CITY           SKY/WX    TMP DP  RH WIND       PRES   REMARKS
OMAK           CLEAR     73  52  47 N12       30.03R
WENATCHEE      CLEAR     75  58  55 N12       30.02S
ELLENSBURG     CLEAR     71  57  61 NW14G23   30.06R
YAKIMA         CLEAR     78  53  41 NW12      30.02S
$$

WAZ028-034-035-281100-
COLUMBIA BASIN

CITY           SKY/WX    TMP DP  RH WIND       PRES   REMARKS
EPHRATA        CLEAR     79  54  41 NW8       29.98R
MOSES LAKE     CLEAR     68  57  68 SE3       29.99R
PASCO          CLEAR     67  58  72 CALM      29.97R
HERMISTON, OR  CLEAR     64  53  67 SE3       29.97R
$$

WAZ036>038-281100-
NORTHEAST WASHINGTON

CITY           SKY/WX    TMP DP  RH WIND       PRES   REMARKS
SPOKANE GEIGER CLEAR     67  47  48 N5        30.06S
SPOKANE FELTS  CLEAR     66  52  60 CALM      30.05R
FAIRCHILD AFB  CLEAR     70  49  47 NE5       30.06S
COEURDALENE,ID CLEAR     66  52  59 NE10      30.05R
DEER PARK      CLEAR     61  53  75 NW6       30.06R
$$

WAZ029>033-281100-
SOUTHEAST WASHINGTON

CITY           SKY/WX    TMP DP  RH WIND       PRES   REMARKS
PULLMAN        CLEAR     56  48  74 CALM      30.08S
LEWISTON, ID   CLEAR     73  50  44 CALM      30.00S
WALLA WALLA    CLEAR     73  52  47 S5        30.00R
PENDLETON, OR  CLEAR     66  49  54 SE5       30.02R
$$




USA.gov is the U.S. government's official web portal to all federal, state and local government web resources and services.